COSMOS 1386

Satellite information

Favourite Embed

Satellite Type and Status

PAYLOADIN ORBIT

Key statistics

Satellite COSMOS 1386 at a glance.

Uptime

15651

Days in orbit

Revolutions

≈ 13.8

Per day

Orbit

LEO

Low Earth Orbit

Inclination

83.0

Latest

Satellite identification and parameters

Extended collection of information and parameters for COSMOS 1386.

Object identification

Identified? True

Debris? False

Object name: COSMOS 1386

International designator: 1982-069A

Object number (NORAD): 13353

Object ID (CCSDS): 13353

Country: COMMONWEALTH OF INDEPENDENT STATES (CIS)

Current information (Y/N): Y

RCS size: LARGE

Orbital parameters

Period: 104.607 minutes

Inclination: 82.9657 deg

SMA: 7354.158 km

Apoapsis: 1005.475 km

Periapsis: 946.57 km

RAAN: 42.4225 deg

Eccentricy: 0.0040049

Argument of periapsis: 106.6182 deg

Mean anomaly: 253.9378 deg

Mean motion: 13.76586071 rev/day

Mean motion (dot): 0.0000007 rev/day2

B* drag term: 0.000054884 1/REarth

Two-line elements (TLE)

Creation date: May 12, 2025, 7:41 p.m.

Reference frame: TEME

Reference center: EARTH

Epoch: May 12, 2025, 12:06 p.m. UTC

TLE line 0: 0 COSMOS 1386

TLE line 1: 1 13353U 82069A 25132.50425452 .00000070 00000-0 54884-4 0 9990

TLE line 2: 2 13353 82.9657 42.4225 0040049 106.6182 253.9378 13.76586071151855

Live tracking on map

Real-time ground track for satellite COSMOS 1386.

In-orbit conjunctions

There are no conjunctions computed for COSMOS 1386, at the moment. Check back to stay up to date, as we update our databases every day.

Go to all conjunctions

Associated space launch

Navigation satellite providing location information for the Tsiklon-B navigation system

COSMOS 1386 was lifted into orbit during the mission ‘Kosmos-3M | Parus 34’, on board a Kosmos-3M space rocket.

The launch took place on July 7, 1982, 9:47 a.m. from 132/1 (132L).

For more information about the launch, click the button.

Launch to space Kosmos-3M | Parus 34
Kosmos-3M | Parus 34

Agency: N/A

Status: Launch Successful

Launch date: July 7, 1982, 9:47 a.m. UTC

Rocket: Kosmos-3M

Launch pad: 132/1 (132L)

Location: Plesetsk Cosmodrome, Russian Federation

...

Latest news about this satellite

There are no fresh news available about this satellite. Check back as we update our databases every day.


Newsletter sign-up

Weekly statistics, charts and insights to help you stay on top of the space industry.